map of ZAM home
Great Circle Mapper logo
ZAM - Airport
Location
City:  Zamboanga, Philippines
Name:Zamboanga International Airport
ICAO / IATA:RPMZ / ZAM

Details
Type:Airport (Aerodrome, Airfield)
Use:Public/Civil, International (customs port of entry)
Latitude:6°55'21"N (6.922419)
Longitude:122°03'35"E (122.059633)
Datum:WGS 1984
Elevation:33 ft (10 m)
Variation:0.5°W (WMM2015 magnetic declination)
Runways:1
Longest:8560 × 144 ft (2609 × 44 m), paved

Time
Time Zone:UTC+8
Local Time:

Weather
METAR:RPMZ 190300Z 24002KT 9999 FEW017CB SCT100 32/26 Q1012 RMK A2988 CB NW
TAF:RPMZ 182300Z 1900/1924 09006KT 9999 FEW018 SCT300
TEMPO 1900/1906 34004KT 9999 FEW017CB BKN100

Related Locations
Nearby:
Farthest:SITA: 12388 mi / 19937 km
Jacareacanga [Nossa Senhora da Conceição], PA, BR

Find:

   beyond  
but within

Other Information
Maps:
NOTAMs:
Links:
Sources:

  
flag of Philippines   

Sectional Chart

Flight Planning
at skyvector.com

Satellite Image

Google Maps Satellite View

 

Copyright © 2004-2014 Karl L. Swartz. All rights reserved.
The Great Circle Mapper name and logo are trademarks of the Great Circle Mapper.
All other trademarks mentioned herein belong to their respective owners.
Please see credits for attibutions and further copyright information.

  Follow gcmap on Facebook Follow gcmap on Twitter

hCard Microformat

Geo Microformat